TimeHST,TemperatureF,Dew PointF,Humidity,Sea Level PressureIn,VisibilityMPH,Wind Direction,Wind SpeedMPH,Gust SpeedMPH,PrecipitationIn,Events,Conditions,WindDirDegrees,DateUTC
12:56 AM,49.1,43.7,82,29.97,9.0,ESE,4.6,-,N/A,,Clear,110,2014-02-23 10:56:00
1:56 AM,47.5,43.0,84,29.96,10.0,East,2.3,-,N/A,,Clear,100,2014-02-23 11:56:00
2:56 AM,46.6,40.8,80,29.96,12.0,ESE,4.6,-,N/A,,Clear,120,2014-02-23 12:56:00
3:56 AM,46.9,39.2,74,29.95,12.0,ESE,3.5,-,N/A,,Clear,120,2014-02-23 13:56:00
4:56 AM,48.0,39.6,73,29.96,12.0,ESE,2.3,-,N/A,,Clear,110,2014-02-23 14:56:00
5:56 AM,45.9,37.6,73,29.99,12.0,East,4.6,-,N/A,,Clear,100,2014-02-23 15:56:00
6:56 AM,47.7,37.0,67,30.01,11.0,East,5.8,-,N/A,,Clear,100,2014-02-23 16:56:00
7:56 AM,56.1,41.0,57,29.99,12.0,ESE,2.3,-,N/A,,Clear,120,2014-02-23 17:56:00
8:56 AM,60.6,38.1,43,29.99,12.0,South,2.3,-,N/A,,Clear,170,2014-02-23 18:56:00
9:56 AM,62.6,40.5,44,30.00,12.0,WSW,5.8,-,N/A,,Clear,250,2014-02-23 19:56:00
10:56 AM,65.5,42.4,43,29.98,12.0,West,8.1,15.0,N/A,,Clear,260,2014-02-23 20:56:00
11:56 AM,66.4,45.3,47,29.97,12.0,WSW,8.1,19.6,N/A,,Partly Cloudy,250,2014-02-23 21:56:00
12:56 PM,66.0,50.2,57,29.95,12.0,West,10.4,19.6,N/A,,Scattered Clouds,260,2014-02-23 22:56:00
1:56 PM,65.1,51.1,60,29.93,12.0,West,12.7,21.9,N/A,,Partly Cloudy,260,2014-02-23 23:56:00
2:56 PM,64.0,53.2,68,29.92,12.0,West,15.0,23.0,N/A,,Clear,260,2014-02-24 00:56:00
3:36 PM,60.8,53.6,77,30.24,9.0,West,13.8,23.0,N/A,,Mostly Cloudy,260,2014-02-24 01:36:00
3:46 PM,60.8,51.8,72,30.24,12.0,West,10.4,-,N/A,,Mostly Cloudy,260,2014-02-24 01:46:00
3:56 PM,59.7,53.1,79,29.94,8.0,WSW,11.5,19.6,N/A,,Mostly Cloudy,250,2014-02-24 01:56:00
4:12 PM,57.2,55.4,94,30.24,4.0,WSW,10.4,17.3,N/A,Rain,Light Rain,250,2014-02-24 02:12:00
4:17 PM,57.2,55.4,94,30.24,3.0,West,9.2,-,N/A,Rain,Light Rain,260,2014-02-24 02:17:00
4:22 PM,57.2,55.4,94,30.24,2.5,West,9.2,-,N/A,Rain,Light Rain,260,2014-02-24 02:22:00
4:37 PM,57.2,53.6,88,30.24,3.0,WSW,9.2,-,N/A,Rain,Light Rain,250,2014-02-24 02:37:00
4:42 PM,55.4,53.6,94,30.24,4.0,West,12.7,17.3,N/A,Rain,Light Rain Showers,260,2014-02-24 02:42:00
4:49 PM,55.4,51.8,88,30.25,5.0,WSW,9.2,17.3,N/A,,Mostly Cloudy,250,2014-02-24 02:49:00
4:54 PM,55.4,53.6,94,30.25,6.0,WSW,8.1,15.0,N/A,,Mostly Cloudy,250,2014-02-24 02:54:00
4:56 PM,55.6,52.9,91,29.96,6.0,WSW,8.1,15.0,0.01,,Mostly Cloudy,250,2014-02-24 02:56:00
5:16 PM,55.4,53.6,94,30.26,5.0,WSW,8.1,-,N/A,,Mostly Cloudy,240,2014-02-24 03:16:00
5:25 PM,55.4,53.6,94,30.26,3.0,WSW,6.9,-,N/A,Rain,Light Rain Showers,250,2014-02-24 03:25:00
5:30 PM,53.6,53.6,100,30.26,2.0,WSW,9.2,15.0,N/A,Rain,Light Rain Showers,250,2014-02-24 03:30:00
5:40 PM,53.6,53.6,100,30.27,3.0,WSW,6.9,16.1,N/A,Rain,Light Rain Showers,250,2014-02-24 03:40:00
5:45 PM,53.6,51.8,94,30.27,4.0,WSW,4.6,-,N/A,Rain,Light Rain Showers,250,2014-02-24 03:45:00
5:50 PM,53.6,51.8,94,30.27,5.0,WSW,5.8,-,N/A,Rain,Light Rain Showers,240,2014-02-24 03:50:00
5:55 PM,53.6,51.8,94,30.27,7.0,WSW,4.6,-,N/A,,Mostly Cloudy,240,2014-02-24 03:55:00
5:56 PM,53.8,51.8,93,30.00,7.0,SW,3.5,-,0.02,,Mostly Cloudy,230,2014-02-24 03:56:00
6:26 PM,53.6,53.6,100,30.27,7.0,WSW,1.2,-,N/A,,Overcast,250,2014-02-24 04:26:00
6:31 PM,53.6,53.6,100,30.27,6.0,West,3.5,-,N/A,,Overcast,270,2014-02-24 04:31:00
6:41 PM,53.6,53.6,100,30.27,7.0,SW,2.3,-,N/A,,Overcast,230,2014-02-24 04:41:00
6:46 PM,53.6,53.6,100,30.28,7.0,WSW,2.3,-,N/A,,Overcast,250,2014-02-24 04:46:00
6:51 PM,53.6,53.6,100,30.28,7.0,West,2.3,-,N/A,,Overcast,260,2014-02-24 04:51:00
6:56 PM,54.1,52.9,95,30.01,6.0,WSW,3.5,-,N/A,,Mostly Cloudy,250,2014-02-24 04:56:00
7:06 PM,53.6,51.8,94,30.28,5.0,West,3.5,-,N/A,,Mostly Cloudy,260,2014-02-24 05:06:00
7:16 PM,53.6,51.8,94,30.28,5.0,West,2.3,-,N/A,,Scattered Clouds,260,2014-02-24 05:16:00
7:46 PM,51.8,51.8,100,30.29,5.0,Calm,Calm,-,N/A,,Mostly Cloudy,0,2014-02-24 05:46:00
7:51 PM,51.8,51.8,100,30.29,5.0,WSW,1.2,-,N/A,,Mostly Cloudy,240,2014-02-24 05:51:00
7:56 PM,52.3,51.4,97,29.99,5.0,WSW,2.3,-,N/A,,Mostly Cloudy,240,2014-02-24 05:56:00
8:06 PM,51.8,51.8,100,30.30,4.0,South,1.2,-,N/A,,Mostly Cloudy,180,2014-02-24 06:06:00
8:16 PM,51.8,50.0,94,30.30,6.0,WSW,2.3,-,N/A,,Overcast,240,2014-02-24 06:16:00
8:26 PM,51.8,50.0,94,30.30,8.0,South,1.2,-,N/A,,Mostly Cloudy,180,2014-02-24 06:26:00
8:31 PM,51.8,50.0,94,30.30,9.0,South,2.3,-,N/A,,Mostly Cloudy,180,2014-02-24 06:31:00
8:36 PM,51.8,50.0,94,30.30,9.0,South,1.2,-,N/A,,Scattered Clouds,180,2014-02-24 06:36:00
8:56 PM,51.1,49.8,95,29.99,7.0,Calm,Calm,-,N/A,,Partly Cloudy,0,2014-02-24 06:56:00
9:56 PM,47.8,45.5,92,30.01,10.0,East,4.6,-,N/A,,Clear,100,2014-02-24 07:56:00
10:56 PM,46.8,43.7,89,30.00,12.0,ESE,3.5,-,N/A,,Clear,120,2014-02-24 08:56:00
11:56 PM,45.9,42.8,89,29.97,12.0,ESE,4.6,-,N/A,,Clear,120,2014-02-24 09:56:00